QPF
0.00 0.00 0.00 0.00 0.00 0.00 0.00 0.00 0.00 0.00 0.00 0.00 0.00 0.00 0.00 0.00 0.00 0.00 0.00 0.00 0.00 0.00 0.00 0.00 0.00 0.00 0.00 0.00 0.00 0.00 0.00 0.01 0.00 0.00 0.01 0.01 0.00 0.00 0.00 0.00 0.00 0.00 0.00
0.00 0.00 0.00 0.00 0.00 0.00 0.00 0.00 0.00 0.00 0.00 0.00 0.00 0.00 0.00 0.00 0.00 0.00 0.00 0.00 0.00 0.00 0.00 0.00 0.00 0.00 0.00 0.00 0.00 0.01 0.02 0.01 0.00 0.00 0.00 0.00 0.00 0.00 0.00 0.00 0.00 0.00 0.00
0.00 0.00 0.00 0.00 0.00 0.00 0.00 0.00 0.00 0.00 0.00 0.00 0.00 0.00 0.00 0.00 0.00 0.00 0.00 0.00 0.00 0.00 0.00 0.00 0.01 0.01 0.01 0.01 0.00 0.02 0.02 0.01 0.00 0.00 0.00 0.00 0.00 0.00 0.00 0.00 0.00 0.00 0.00
0.00 0.00 0.00 0.00 0.00 0.00 0.00 0.00 0.00 0.00 0.00 0.00 0.00 0.00 0.00 0.00 0.00 0.00 0.00 0.00 0.00 0.00 0.00 0.00 0.00 0.00 0.00 0.00 0.00 0.00 0.01 0.00 0.00 0.00 0.00 0.00 0.00 0.00 0.00 0.00 0.00 0.00 0.00
0.00 0.00 0.00 0.00 0.00 0.00 0.00 0.00 0.00 0.00 0.00 0.00 0.00 0.00 0.00 0.00 0.00 0.00 0.00 0.00 0.00 0.00 0.00 0.00 0.00 0.00 0.00 0.00 0.00 0.00 0.00 0.00 0.00 0.00 0.00 0.00 0.00 0.00 0.00 0.00 0.00 0.00 0.00
0.01 0.00 0.00 0.00 0.00 0.00 0.00 0.00 0.00 0.00 0.00 0.00 0.00 0.00 0.00 0.00 0.00 0.00 0.00 0.00 0.00 0.00 0.00 0.00 0.00 0.00 0.00 0.00 0.00 0.00 0.00 0.00 0.00 0.00 0.00 0.00 0.00 0.00 0.00 0.00 0.00 0.00 0.00
0.05 0.00 0.00 0.00 0.00 0.00 0.00 0.00 0.00 0.00 0.00 0.00 0.00 0.00 0.00 0.00 0.00 0.00 0.00 0.00 0.00 0.00 0.00 0.00 0.00 0.00 0.00 0.00 0.00 0.00 0.00 0.00 0.00 0.00 0.00 0.00 0.00 0.00 0.00 0.00 0.00 0.00 0.00
0.04 0.00 0.00 0.00 0.00 0.00 0.00 0.00 0.00 0.00 0.00 0.00 0.00 0.00 0.00 0.00 0.00 0.00 0.00 0.00 0.00 0.00 0.00 0.00 0.00 0.00 0.00 0.00 0.00 0.00 0.00 0.00 0.00 0.00 0.00 0.00 0.00 0.00 0.00 0.00 0.00 0.00 0.00
0.00 0.00 0.00 0.00 0.00 0.00 0.00 0.00 0.00 0.00 0.00 0.00 0.00 0.00 0.00 0.00 0.00 0.00 0.00 0.00 0.00 0.00 0.00 0.00 0.00 0.00 0.00 0.00 0.00 0.00 0.00 0.00 0.00 0.00 0.00 0.00 0.00 0.00 0.00 0.00 0.00 0.00 0.00
0.00 0.00 0.00 0.00 0.00 0.00 0.00 0.00 0.00 0.00 0.00 0.00 0.00 0.00 0.00 0.00 0.00 0.00 0.00 0.00 0.00 0.00 0.00 0.00 0.00 0.00 0.00 0.00 0.00 0.00 0.00 0.00 0.00 0.00 0.00 0.00 0.00 0.00 0.00 0.00 0.00 0.00 0.00
0.01 0.01 0.00 0.00 0.00 0.00 0.00 0.00 0.00 0.00 0.00 0.00 0.00 0.00 0.00 0.00 0.00 0.00 0.00 0.00 0.00 0.00 0.00 0.00 0.00 0.00 0.00 0.00 0.00 0.00 0.00 0.00 0.00 0.00 0.00 0.00 0.00 0.00 0.00 0.00 0.00 0.00 0.00
0.00 0.00 0.00 0.00 0.00 0.00 0.00 0.00 0.00 0.00 0.00 0.00 0.00 0.00 0.00 0.00 0.00 0.00 0.00 0.00 0.00 0.00 0.00 0.00 0.00 0.00 0.00 0.00 0.00 0.00 0.00 0.00 0.00 0.00 0.00 0.00 0.00 0.00 0.00 0.00 0.00 0.00 0.00
0.00 0.00 0.00 0.00 0.00 0.00 0.00 0.00 0.00 0.00 0.00 0.00 0.00 0.00 0.00 0.00 0.00 0.00 0.00 0.00 0.00 0.00 0.00 0.00 0.00 0.00 0.00 0.00 0.00 0.00 0.00 0.00 0.00 0.00 0.00 0.00 0.00 0.00 0.00 0.00 0.00 0.00 0.00
0.00 0.00 0.00 0.00 0.00 0.00 0.00 0.00 0.00 0.00 0.00 0.00 0.00 0.00 0.00 0.00 0.00 0.00 0.00 0.00 0.00 0.00 0.00 0.00 0.00 0.00 0.00 0.00 0.00 0.00 0.00 0.00 0.00 0.00 0.00 0.00 0.00 0.00 0.00 0.00 0.00 0.00 0.00
0.00 0.01 0.01 0.02 0.01 0.00 0.00 0.00 0.00 0.00 0.00 0.00 0.00 0.00 0.00 0.00 0.00 0.00 0.00 0.00 0.00 0.00 0.00 0.00 0.00 0.00 0.00 0.00 0.00 0.00 0.00 0.00 0.00 0.00 0.00 0.00 0.00 0.00 0.00 0.00 0.00 0.00 0.00
0.07 0.06 0.05 0.04 0.02 0.00 0.00 0.00 0.00 0.00 0.01 0.00 0.00 0.00 0.00 0.00 0.00 0.00 0.00 0.00 0.00 0.00 0.00 0.00 0.00 0.00 0.00 0.00 0.00 0.02 0.01 0.00 0.00 0.00 0.00 0.00 0.00 0.00 0.00 0.00 0.00 0.00 0.00
0.11 0.09 0.07 0.05 0.05 0.04 0.03 0.04 0.01 0.00 0.00 0.00 0.00 0.00 0.00 0.00 0.00 0.00 0.00 0.00 0.00 0.00 0.00 0.00 0.00 0.01 0.03 0.01 0.00 0.01 0.03 0.00 0.00 0.00 0.00 0.00 0.00 0.00 0.00 0.00 0.00 0.00 0.00
0.08 0.10 0.14 0.11 0.05 0.08 0.04 0.04 0.01 0.00 0.01 0.00 0.00 0.00 0.00 0.00 0.00 0.00 0.00 0.01 0.00 0.00 0.00 0.00 0.01 0.02 0.06 0.01 0.02 0.01 0.00 0.00 0.00 0.00 0.00 0.00 0.00 0.00 0.00 0.00 0.00 0.00 0.00
0.01 0.03 0.05 0.07 0.13 0.10 0.07 0.06 0.03 0.01 0.00 0.00 0.00 0.00 0.00 0.00 0.00 0.01 0.02 0.01 0.01 0.03 0.05 0.06 0.03 0.01 0.02 0.01 0.06 0.05 0.00 0.00 0.00 0.00 0.00 0.00 0.00 0.00 0.00 0.00 0.00 0.00 0.00
0.00 0.01 0.00 0.00 0.03 0.02 0.04 0.04 0.03 0.02 0.01 0.01 0.02 0.02 0.01 0.02 0.03 0.03 0.04 0.03 0.03 0.06 0.10 0.05 0.02 0.03 0.05 0.01 0.03 0.06 0.01 0.00 0.00 0.00 0.00 0.00 0.00 0.00 0.00 0.00 0.00 0.00 0.00
0.00 0.02 0.02 0.00 0.00 0.00 0.00 0.00 0.06 0.08 0.05 0.04 0.05 0.05 0.03 0.02 0.02 0.04 0.04 0.08 0.10 0.11 0.12 0.10 0.04 0.06 0.05 0.01 0.02 0.05 0.07 0.01 0.00 0.00 0.00 0.00 0.00 0.00 0.00 0.00 0.00 0.00 0.00
0.00 0.00 0.01 0.03 0.03 0.00 0.00 0.00 0.07 0.10 0.12 0.08 0.03 0.04 0.01 0.00 0.00 0.00 0.00 0.02 0.08 0.14 0.11 0.06 0.04 0.07 0.04 0.02 0.02 0.03 0.06 0.10 0.02 0.00 0.00 0.00 0.00 0.00 0.00 0.00 0.00 0.00 0.00
0.01 0.00 0.02 0.01 0.00 0.01 0.03 0.01 0.00 0.00 0.02 0.04 0.04 0.07 0.03 0.03 0.03 0.00 0.00 0.02 0.02 0.04 0.04 0.06 0.05 0.01 0.03 0.01 0.00 0.00 0.00 0.00 0.00 0.00 0.00 0.00 0.00 0.00 0.00 0.00 0.00 0.00 0.00
0.03 0.01 0.00 0.01 0.01 0.01 0.01 0.02 0.02 0.00 0.00 0.00 0.01 0.01 0.00 0.01 0.01 0.00 0.00 0.00 0.00 0.01 0.01 0.00 0.00 0.00 0.00 0.00 0.00 0.00 0.00 0.00 0.00 0.00 0.00 0.00 0.00 0.00 0.00 0.00 0.00 0.00 0.00
0.06 0.03 0.01 0.00 0.00 0.00 0.01 0.02 0.02 0.01 0.00 0.00 0.00 0.00 0.00 0.00 0.00 0.00 0.00 0.00 0.00 0.00 0.00 0.00 0.00 0.00 0.00 0.00 0.00 0.00 0.00 0.00 0.00 0.00 0.00 0.00 0.00 0.00 0.00 0.00 0.00 0.00 0.00
0.04 0.03 0.02 0.00 0.00 0.00 0.00 0.00 0.00 0.00 0.00 0.00 0.00 0.00 0.00 0.00 0.00 0.00 0.00 0.00 0.00 0.00 0.00 0.00 0.00 0.00 0.00 0.00 0.00 0.00 0.00 0.00 0.00 0.00 0.00 0.00 0.00 0.00 0.00 0.00 0.00 0.00 0.00
MSLP
1019.98 1019.70 1020.10 1019.79 1019.78 1019.64 1019.52 1019.46 1019.32 1019.22 1019.22 1019.11 1019.13 1019.16 1019.02 1019.22 1019.33 1019.27 1019.69 1021.17 1021.33 1021.27 1021.19 1020.97 1020.76 1020.53 1020.43 1020.29 1020.06 1019.75 1019.53 1019.20 1018.83 1018.61 1018.42 1018.29 1018.10 1017.89 1017.69 1017.47 1017.30 1017.20 1017.04
1020.00 1019.83 1019.88 1019.66 1019.72 1019.66 1019.52 1019.44 1019.43 1019.07 1018.89 1018.99 1019.39 1019.31 1019.26 1019.47 1019.77 1019.65 1019.60 1020.50 1020.93 1021.01 1020.97 1020.76 1020.52 1020.21 1020.01 1020.00 1019.87 1019.74 1019.45 1019.13 1018.74 1018.51 1018.34 1018.24 1017.98 1017.74 1017.56 1017.31 1017.07 1016.84 1016.73
1020.18 1020.01 1019.82 1019.62 1019.59 1019.77 1019.72 1019.59 1019.42 1019.23 1018.87 1018.93 1019.45 1019.46 1019.52 1019.64 1019.88 1019.94 1019.69 1019.67 1019.89 1020.60 1020.56 1020.39 1020.17 1020.02 1019.86 1019.82 1019.81 1019.63 1019.35 1018.99 1018.71 1018.48 1018.26 1018.08 1017.90 1017.62 1017.32 1017.13 1016.96 1016.70 1016.45
1020.25 1020.12 1019.59 1019.53 1019.72 1019.49 1019.27 1019.10 1018.99 1018.90 1018.93 1018.96 1019.16 1019.03 1019.32 1019.35 1019.80 1019.84 1019.61 1019.51 1019.53 1019.26 1019.81 1019.83 1019.95 1019.94 1019.82 1019.75 1019.63 1019.46 1019.20 1018.84 1018.64 1018.43 1018.15 1017.88 1017.68 1017.47 1017.19 1016.96 1016.84 1016.65 1016.41
1020.29 1019.84 1019.55 1019.79 1019.76 1019.35 1019.16 1018.92 1019.03 1018.99 1019.12 1018.90 1018.93 1019.11 1019.15 1019.11 1019.35 1019.11 1019.45 1019.48 1019.35 1019.32 1019.05 1019.32 1019.42 1019.43 1019.43 1019.59 1019.54 1019.41 1019.15 1018.70 1018.48 1018.24 1017.96 1017.64 1017.41 1017.23 1017.05 1016.83 1016.66 1016.54 1016.37
1020.20 1020.18 1019.86 1019.92 1019.58 1019.03 1019.06 1019.19 1019.34 1019.30 1019.06 1018.91 1018.37 1018.73 1019.04 1019.17 1019.21 1019.15 1018.94 1019.01 1019.02 1019.13 1018.70 1018.90 1018.76 1018.34 1018.96 1019.38 1019.46 1019.37 1019.04 1018.72 1018.43 1018.13 1017.87 1017.53 1017.21 1017.07 1016.96 1016.77 1016.63 1016.49 1016.36
1020.41 1020.35 1019.84 1019.92 1019.68 1019.39 1019.68 1019.71 1019.54 1019.63 1019.29 1019.55 1018.90 1018.77 1019.00 1019.14 1019.02 1018.99 1018.87 1018.63 1018.62 1018.62 1018.78 1018.71 1018.58 1018.56 1018.26 1019.01 1019.32 1019.33 1019.09 1018.78 1018.43 1018.11 1017.80 1017.49 1017.11 1016.72 1016.66 1016.68 1016.59 1016.50 1016.39
1020.55 1020.32 1020.32 1019.95 1019.98 1019.53 1019.83 1019.82 1019.73 1019.10 1019.19 1019.49 1018.57 1018.42 1018.21 1018.55 1018.33 1018.38 1018.66 1018.65 1018.78 1018.69 1018.67 1018.60 1018.64 1018.73 1018.43 1018.29 1018.90 1019.04 1018.98 1018.75 1018.43 1018.13 1017.84 1017.52 1017.23 1016.86 1016.50 1016.41 1016.49 1016.51 1016.38
1020.21 1020.40 1020.33 1020.32 1020.12 1019.88 1019.43 1019.79 1019.72 1019.59 1018.90 1019.45 1019.64 1018.78 1018.24 1017.63 1017.95 1018.14 1018.58 1018.50 1018.80 1018.48 1018.46 1018.56 1018.64 1018.76 1018.71 1018.27 1018.39 1018.48 1018.82 1018.77 1018.41 1018.11 1017.82 1017.54 1017.35 1017.05 1016.69 1016.36 1016.34 1016.53 1016.46
1020.00 1020.14 1020.33 1020.42 1020.37 1019.91 1019.95 1019.83 1019.73 1019.96 1019.79 1018.99 1019.34 1019.39 1019.57 1019.30 1017.97 1017.35 1017.97 1018.33 1018.67 1018.37 1018.58 1018.43 1018.43 1018.55 1018.76 1018.18 1018.23 1019.13 1019.11 1018.93 1018.62 1018.33 1018.03 1017.84 1017.53 1017.07 1016.81 1016.45 1016.34 1016.49 1016.40
1019.94 1019.98 1020.26 1020.39 1020.34 1020.16 1020.12 1020.15 1020.12 1020.15 1019.81 1019.59 1019.17 1019.23 1019.51 1019.26 1019.29 1018.53 1017.52 1017.60 1018.16 1018.48 1018.44 1018.56 1018.51 1018.35 1018.42 1018.33 1018.11 1019.10 1019.40 1019.16 1018.85 1018.62 1018.26 1017.92 1017.59 1017.13 1016.88 1016.58 1016.38 1016.50 1016.53
1019.57 1019.88 1019.99 1020.17 1020.26 1020.21 1020.23 1020.03 1020.30 1020.33 1020.29 1020.13 1019.79 1019.74 1019.20 1018.94 1018.61 1018.61 1018.22 1018.06 1018.32 1018.39 1018.57 1018.60 1018.57 1018.45 1018.45 1018.23 1019.28 1019.83 1019.67 1019.53 1019.33 1019.02 1018.65 1018.21 1017.78 1017.27 1017.04 1016.83 1016.77 1016.85 1016.83
1018.83 1019.35 1019.89 1020.08 1019.91 1020.28 1020.17 1020.11 1020.33 1020.36 1020.36 1020.14 1020.26 1019.70 1019.71 1019.49 1019.39 1019.15 1018.81 1018.27 1018.33 1018.53 1018.44 1018.52 1018.41 1018.52 1018.39 1018.48 1019.17 1019.64 1019.83 1019.97 1019.73 1019.46 1019.08 1018.64 1018.20 1017.66 1017.51 1017.35 1017.28 1017.30 1017.23
1018.60 1018.80 1019.51 1019.66 1019.87 1019.93 1020.08 1020.19 1020.10 1020.00 1020.01 1020.13 1020.34 1020.25 1019.72 1019.68 1019.63 1019.43 1019.12 1018.87 1018.22 1018.00 1017.97 1018.49 1018.31 1018.32 1018.50 1019.09 1019.63 1019.33 1019.67 1020.62 1020.35 1020.10 1019.71 1019.37 1018.81 1018.41 1018.26 1017.99 1017.79 1017.64 1017.51
1018.23 1018.73 1019.21 1019.46 1019.59 1019.68 1019.85 1019.93 1019.91 1020.03 1020.12 1020.29 1020.08 1020.24 1020.07 1019.57 1019.68 1019.48 1019.50 1019.33 1018.99 1018.18 1017.54 1018.09 1018.11 1018.52 1018.71 1018.31 1019.77 1019.25 1020.61 1021.27 1021.06 1020.87 1020.40 1020.12 1019.66 1019.38 1019.20 1018.91 1018.63 1018.36 1018.03
1018.84 1018.71 1019.28 1019.24 1019.34 1019.41 1019.59 1019.87 1019.68 1019.90 1020.14 1020.04 1019.88 1019.89 1020.20 1019.55 1019.64 1019.54 1019.44 1019.30 1019.26 1019.05 1018.46 1017.82 1018.10 1018.67 1019.25 1018.96 1019.50 1019.68 1020.75 1021.09 1021.72 1021.50 1021.14 1020.82 1020.43 1020.23 1020.08 1019.86 1019.64 1019.39 1019.10
1018.67 1018.76 1018.91 1019.12 1019.36 1019.33 1019.38 1019.72 1019.78 1019.65 1019.84 1019.93 1019.97 1019.92 1020.04 1020.07 1019.78 1019.25 1019.34 1019.34 1019.21 1019.10 1018.75 1018.22 1018.48 1018.84 1019.76 1019.82 1019.50 1019.35 1020.25 1020.58 1021.94 1022.05 1021.75 1021.46 1021.13 1020.91 1020.68 1020.44 1020.24 1020.09 1019.88
1018.33 1018.56 1018.76 1018.88 1019.01 1019.14 1019.36 1019.43 1019.58 1019.38 1019.75 1019.64 1019.69 1019.79 1019.79 1019.63 1019.99 1019.92 1019.61 1019.52 1019.24 1019.30 1019.40 1018.96 1018.81 1018.86 1019.74 1019.59 1019.69 1019.80 1019.20 1020.46 1021.61 1022.52 1022.32 1022.19 1021.97 1021.78 1021.60 1021.41 1021.14 1020.78 1020.45
1017.91 1018.06 1018.47 1018.72 1018.82 1018.92 1019.02 1019.12 1019.29 1019.28 1019.19 1019.28 1019.35 1019.42 1019.54 1019.60 1019.67 1019.57 1019.76 1019.39 1019.13 1019.45 1020.02 1019.85 1019.36 1018.91 1019.08 1019.23 1020.01 1019.94 1019.84 1020.40 1021.06 1022.23 1022.19 1022.46 1022.45 1022.50 1022.44 1022.22 1021.99 1021.77 1021.50
1017.48 1017.64 1017.84 1018.09 1018.40 1018.54 1018.75 1018.90 1018.94 1019.00 1018.99 1018.92 1019.09 1019.26 1019.33 1019.44 1019.55 1019.83 1019.96 1019.97 1019.69 1019.80 1020.20 1019.77 1019.51 1018.63 1019.30 1019.40 1019.61 1019.89 1019.83 1019.86 1020.40 1020.62 1021.60 1021.71 1022.19 1022.62 1022.72 1022.77 1022.73 1022.63 1022.39
1017.21 1017.46 1017.62 1017.82 1018.06 1018.17 1018.21 1018.46 1018.59 1018.78 1018.71 1018.66 1018.71 1019.16 1019.23 1019.48 1019.96 1020.16 1020.20 1019.86 1020.08 1020.07 1020.14 1020.03 1019.53 1019.16 1019.53 1018.84 1019.02 1019.85 1020.25 1020.34 1020.84 1020.41 1020.42 1020.47 1021.14 1021.74 1022.70 1023.10 1023.26 1023.46 1023.14
1016.84 1017.21 1017.40 1017.47 1017.67 1017.67 1017.94 1018.45 1018.69 1018.52 1018.53 1018.62 1018.55 1018.66 1019.07 1019.67 1020.27 1020.35 1020.35 1020.57 1020.82 1020.42 1020.40 1020.21 1019.87 1019.82 1019.65 1019.51 1019.34 1019.69 1019.96 1020.37 1020.17 1021.05 1020.63 1020.56 1021.15 1021.88 1023.05 1023.54 1024.31 1024.03 1023.92
1016.40 1016.63 1016.88 1017.22 1017.39 1017.65 1018.01 1018.37 1018.77 1018.60 1018.14 1018.20 1018.36 1018.51 1018.81 1019.19 1019.86 1020.36 1020.56 1020.55 1020.87 1020.72 1020.60 1019.97 1019.95 1020.15 1020.27 1020.68 1020.13 1020.15 1020.15 1020.20 1020.44 1021.09 1021.20 1020.64 1020.81 1021.72 1022.64 1024.24 1024.80 1024.56 1024.22
1016.30 1016.30 1016.55 1016.90 1017.25 1017.74 1018.32 1018.68 1018.90 1018.59 1018.10 1018.12 1018.23 1018.52 1018.93 1019.33 1019.68 1019.88 1020.13 1020.69 1020.99 1021.24 1021.03 1019.86 1020.28 1020.83 1020.82 1020.78 1020.50 1020.24 1020.75 1021.47 1021.58 1021.57 1021.75 1020.37 1021.34 1020.94 1022.06 1023.52 1024.38 1024.37 1024.35
1016.53 1016.59 1016.79 1017.26 1017.50 1017.73 1018.55 1019.01 1019.01 1018.45 1017.93 1018.31 1018.63 1018.76 1019.04 1019.37 1019.94 1020.41 1020.30 1020.91 1021.46 1022.02 1022.29 1022.40 1022.54 1022.63 1022.42 1022.09 1021.52 1020.27 1020.40 1020.35 1020.02 1021.32 1022.39 1021.48 1021.55 1021.43 1021.43 1022.04 1023.22 1023.79 1023.83
1016.50 1017.53 1017.68 1018.02 1018.58 1018.32 1018.88 1019.06 1019.21 1018.68 1018.37 1018.47 1019.39 1019.77 1019.86 1019.88 1020.29 1020.49 1020.68 1020.74 1021.19 1021.64 1021.72 1022.14 1021.74 1022.04 1022.01 1022.28 1022.35 1021.92 1021.27 1020.74 1020.80 1021.36 1023.24 1022.48 1021.78 1021.65 1020.77 1021.55 1022.08 1022.77 1022.73
Thickness
5744 5748 5747 5752 5755 5758 5762 5765 5768 5770 5771 5774 5776 5777 5780 5781 5782 5783 5780 5770 5769 5769 5769 5770 5770 5770 5768 5766 5765 5765 5763 5763 5762 5761 5760 5758 5756 5754 5754 5754 5753 5752 5751
5746 5749 5751 5755 5757 5761 5764 5767 5769 5773 5776 5777 5776 5778 5780 5780 5780 5782 5782 5776 5775 5773 5773 5774 5774 5775 5773 5771 5769 5766 5765 5765 5765 5763 5762 5760 5758 5757 5756 5756 5756 5756 5754
5747 5751 5754 5757 5760 5762 5765 5768 5772 5774 5779 5780 5778 5780 5780 5781 5780 5781 5783 5783 5783 5778 5778 5779 5780 5779 5777 5774 5772 5769 5768 5769 5767 5765 5764 5763 5761 5761 5761 5760 5759 5758 5757
5749 5752 5757 5759 5760 5766 5770 5774 5777 5780 5782 5783 5783 5786 5784 5784 5782 5783 5785 5786 5786 5787 5784 5785 5784 5782 5780 5777 5775 5773 5771 5772 5771 5769 5768 5767 5766 5766 5765 5764 5762 5761 5759
5750 5755 5759 5759 5762 5768 5773 5777 5779 5782 5780 5784 5786 5786 5786 5788 5787 5789 5788 5788 5788 5788 5789 5790 5788 5787 5785 5780 5778 5776 5774 5775 5773 5772 5772 5772 5772 5771 5769 5768 5766 5764 5762
5751 5753 5757 5760 5765 5772 5775 5778 5778 5781 5784 5786 5792 5789 5789 5789 5790 5790 5793 5792 5792 5791 5793 5792 5793 5794 5788 5783 5780 5778 5777 5776 5775 5775 5774 5775 5775 5774 5773 5772 5770 5768 5764
5749 5753 5758 5761 5767 5772 5772 5775 5779 5778 5781 5783 5786 5787 5789 5791 5793 5793 5793 5794 5795 5795 5793 5793 5793 5792 5793 5786 5781 5778 5778 5778 5777 5777 5777 5777 5778 5778 5777 5775 5773 5769 5767
5749 5753 5756 5763 5766 5773 5772 5775 5778 5783 5784 5785 5786 5786 5779 5786 5796 5798 5795 5795 5794 5795 5793 5794 5792 5790 5792 5790 5784 5781 5781 5781 5779 5780 5780 5779 5779 5780 5780 5777 5774 5771 5769
5755 5756 5759 5761 5766 5771 5777 5776 5779 5780 5783 5783 5784 5784 5776 5778 5788 5797 5793 5796 5794 5797 5796 5793 5790 5789 5789 5790 5787 5786 5784 5782 5782 5782 5782 5781 5780 5780 5780 5780 5776 5772 5770
5759 5760 5760 5762 5765 5771 5774 5777 5780 5779 5780 5782 5784 5786 5783 5782 5782 5781 5794 5794 5794 5796 5795 5793 5791 5789 5787 5791 5790 5784 5783 5782 5782 5783 5783 5781 5782 5783 5782 5782 5780 5775 5773
5761 5763 5762 5763 5766 5769 5772 5775 5777 5777 5782 5781 5784 5783 5780 5783 5782 5779 5780 5789 5794 5794 5794 5792 5790 5791 5790 5790 5791 5784 5781 5781 5782 5783 5784 5784 5785 5786 5785 5785 5783 5779 5776
5766 5765 5765 5766 5768 5770 5772 5775 5775 5777 5777 5779 5782 5781 5783 5780 5782 5782 5782 5786 5783 5789 5792 5790 5789 5789 5788 5790 5783 5779 5780 5779 5779 5781 5783 5784 5785 5787 5787 5785 5782 5779 5776
5772 5770 5766 5766 5770 5769 5771 5774 5774 5774 5775 5777 5777 5782 5783 5783 5785 5784 5783 5785 5781 5785 5787 5790 5789 5787 5788 5788 5782 5780 5779 5777 5776 5778 5779 5781 5782 5784 5784 5783 5781 5778 5776
5774 5774 5771 5770 5770 5772 5772 5771 5774 5775 5777 5777 5775 5778 5782 5783 5784 5784 5782 5779 5778 5782 5786 5780 5789 5787 5787 5783 5779 5781 5777 5770 5770 5771 5773 5774 5777 5779 5778 5779 5778 5777 5776
5779 5775 5773 5772 5772 5773 5773 5773 5775 5774 5775 5775 5778 5776 5778 5783 5783 5785 5782 5780 5775 5769 5778 5784 5782 5786 5784 5787 5776 5779 5768 5764 5764 5764 5766 5767 5769 5770 5770 5771 5771 5771 5772
5772 5776 5772 5773 5774 5774 5774 5772 5775 5774 5772 5775 5778 5778 5775 5782 5781 5782 5781 5781 5779 5773 5767 5787 5785 5783 5777 5780 5776 5774 5765 5763 5758 5759 5760 5761 5762 5762 5762 5763 5762 5762 5762
5772 5774 5774 5774 5773 5774 5774 5773 5773 5775 5773 5773 5774 5775 5774 5775 5777 5782 5781 5780 5778 5777 5770 5780 5783 5780 5771 5771 5772 5773 5768 5762 5752 5751 5752 5754 5756 5756 5757 5757 5756 5755 5755
5772 5772 5773 5774 5774 5774 5773 5773 5773 5776 5771 5772 5773 5773 5773 5777 5772 5773 5776 5775 5776 5776 5770 5767 5775 5776 5768 5771 5769 5768 5771 5761 5751 5745 5746 5746 5747 5748 5748 5748 5748 5749 5749
5774 5773 5772 5771 5772 5773 5773 5774 5773 5773 5775 5775 5774 5774 5773 5774 5771 5773 5771 5774 5776 5773 5766 5763 5766 5775 5772 5771 5764 5763 5762 5759 5751 5745 5743 5740 5739 5737 5737 5737 5738 5738 5738
5774 5775 5775 5774 5773 5774 5773 5773 5774 5774 5774 5775 5775 5773 5773 5773 5771 5769 5768 5767 5769 5766 5761 5763 5763 5772 5765 5765 5763 5758 5756 5758 5753 5748 5742 5738 5734 5731 5729 5727 5726 5726 5726
5772 5772 5772 5772 5772 5773 5775 5774 5774 5772 5773 5773 5774 5770 5771 5769 5765 5764 5765 5767 5763 5760 5757 5755 5758 5761 5756 5761 5757 5754 5749 5748 5743 5744 5744 5742 5736 5729 5721 5717 5714 5712 5714
5770 5769 5769 5770 5770 5774 5770 5768 5766 5769 5770 5768 5767 5769 5767 5761 5759 5757 5757 5754 5753 5754 5749 5748 5749 5746 5750 5751 5752 5746 5744 5737 5737 5733 5736 5733 5727 5721 5711 5706 5701 5702 5700
5768 5768 5768 5767 5766 5768 5764 5762 5759 5763 5767 5767 5766 5764 5763 5762 5756 5753 5750 5749 5746 5745 5746 5750 5744 5742 5739 5735 5739 5735 5735 5734 5730 5726 5724 5724 5723 5713 5704 5691 5688 5687 5688
5761 5762 5763 5762 5761 5759 5753 5752 5751 5757 5761 5761 5761 5759 5756 5754 5753 5751 5749 5742 5740 5738 5738 5746 5740 5735 5732 5729 5729 5729 5723 5714 5712 5712 5708 5715 5709 5711 5699 5686 5682 5678 5675
5749 5750 5752 5750 5750 5752 5743 5740 5742 5751 5755 5751 5750 5750 5749 5745 5741 5738 5740 5733 5727 5723 5721 5718 5716 5714 5715 5716 5717 5723 5719 5717 5718 5705 5695 5699 5695 5692 5693 5685 5675 5672 5669
5737 5730 5734 5734 5729 5737 5731 5731 5732 5739 5741 5741 5734 5732 5730 5734 5729 5728 5727 5725 5718 5715 5714 5709 5708 5706 5704 5702 5700 5701 5706 5706 5705 5698 5682 5686 5685 5682 5685 5680 5673 5665 5664